Regional Weather Roundup
Issued by NWS Upton, NY

Current Version | Previous Version | Graphics & Text | Print | Product List | Glossary Off
Versions: 1 2 3 4 5 6 7 8 9 10 11 12 13 14 15 16 17 18 19 20 21 22 23 24 25 26 27 28 29 30 31 32 33 34 35 36 37 38 39 40 41 42 43 44 45 46 47 48 49 50

816
ASUS41 KOKX 280705
RWROKX

REGIONAL WEATHER ROUNDUP
NATIONAL WEATHER SERVICE NEW YORK NY
300 AM EDT THU JUL 28 2016

NOTE: "FAIR" INDICATES FEW OR NO CLOUDS BELOW 12,000 FEET WITH NO
SIGNIFICANT WEATHER AND/OR OBSTRUCTIONS TO VISIBILITY.

NYZ071-072-176-178-NJZ106-104-280800-
NEW YORK CITY METRO AREA

CITY           SKY/WX    TMP DP  RH WIND       PRES   REMARKS
Central Park   CLEAR     80  70  71 VRB5      29.93S
LaGuardia APRT PTCLDY    79  73  82 SW3       29.90S
Kennedy INTL   PTCLDY    75  73  93 S6        29.92S
Newark/Liberty PTCLDY    78  72  81 SW7       29.90S
Bronx Bot Gard   N/A     73  70  88 E2        29.92R
Wall St Helipt SUNNY     79  73  83 W3        29.92S
Teterboro      CLEAR     77  68  73 CALM      29.90S
$$

NYZ177-179-078>081-280800-
LONG ISLAND NEW YORK

CITY           SKY/WX    TMP DP  RH WIND       PRES   REMARKS
Farmingdale    MOCLDY    77  75  93 SW8       29.91S
MacArthur/ISP  MOCLDY    74  73  97 CALM      29.91S
Shirley        CLEAR     73  71  93 CALM      29.91S
Riverhead      NOT AVBL
Westhampton    PTCLDY    66  63  90 CALM      29.93S
Southhampton     N/A     75  72  88 W3        29.87S
Bridgehampton    N/A     68  66  94 CALM      29.90S
East Hampton   FAIR      66  65  96 CALM      29.91S
Montauk          N/A     72  70  93 S3        29.92S
$$

NYZ052-065-067-280800-
HUDSON VALLEY

CITY           SKY/WX    TMP DP  RH WIND       PRES   REMARKS
White Plains   CLEAR     71  68  90 CALM      29.91F
Newburgh       CLEAR     68  63  83 CALM      29.93S
Montgomery     CLEAR     64  62  93 CALM      29.92S
Poughkeepsie   CLEAR     67  62  84 CALM      29.91S
Albany         PTCLDY    68  61  78 CALM      29.91S
$$

NJZ001-105-106-008-010-013-015-019>022-104-280800-
NEW JERSEY

CITY           SKY/WX    TMP DP  RH WIND       PRES   REMARKS
Newark/Liberty PTCLDY    78  72  81 SW7       29.90S
Teterboro      CLEAR     77  68  73 CALM      29.90S
Caldwell       CLEAR     72  66  81 CALM      29.92S
Morristown     CLEAR     66  63  88 CALM      29.92S
Somerville     CLEAR     68  66  93 CALM      29.90S
Linden         FAIR      77  71  80 CALM      29.93S
Sussex         CLEAR     64  63  96 W3        29.94S
Abdover          N/A     63  62  97 CALM      29.94S
Trenton        CLEAR     77  73  87 CALM      29.91F
Millville      MOCLDY    72  70  93 CALM      29.91S FOG
Atlantic City  CLEAR     73  70  88 CALM      29.91  FOG
Wrightstown    CLEAR     75  73  94 S5        29.89F
Toms River     FOG       73  72  96 CALM      29.91F VSB 3/4
Belmar         MOCLDY    75  74  96 SW3       29.92F
$$

PAZ047>061-062-071-280800-
EASTERN PENNSYLVANIA

CITY           SKY/WX    TMP DP  RH WIND       PRES   REMARKS
Philadelphia   PTCLDY    77  73  87 CALM      29.91F
Allentown      CLEAR     70  63  78 N3        29.93S
Scranton       CLEAR     67  60  78 E7        29.95S
$$

CTZ002-004>006-009-010-012-RIZ004-006-007-MAZ004-011-015-280800-
SOUTHERN NEW ENGLAND
 IN CT

CITY           SKY/WX    TMP DP  RH WIND       PRES   REMARKS
Bradley INTL   CLEAR     69  62  78 CALM      29.91S
Hartford       CLEAR     73  66  78 CALM      29.90S
Danbury        CLEAR     66  64  93 CALM      29.93F
Wtrbury/Oxford   N/A     66  61  82 CALM      29.93F
Bridgeport     CLEAR     75  70  84 CALM      29.90F
Meriden        CLEAR     69  64  84 CALM      29.91S
New Haven      CLEAR     70  68  93 CALM      29.91S
Chester        FAIR      73  66  78 SW5       29.92S
Groton         CLEAR     73  68  84 W3        29.90S
Wilimantic     NOT AVBL

 IN RI

CITY           SKY/WX    TMP DP  RH WIND       PRES   REMARKS
Providence     CLEAR     71  65  81 SW3       29.90S
Block Island   CLEAR     71  69  93 SW7       29.91F
Westerly       CLEAR     71  66  84 CALM      29.91S
 IN MA

CITY           SKY/WX    TMP DP  RH WIND       PRES   REMARKS
Boston         CLEAR     76  65  68 W6        29.88S
Worchester     CLEAR     72  58  61 W8        29.94S
Westfield      CLEAR     66  62  87 CALM      29.91S
Provincetown   PTCLDY    72  69  90 S7        29.89F
Nantucket      PTCLDY    70  68  93 SW7       29.91F
$$

ANZ330-335-338-340-345-350-353-355-280800-
COASTAL MARINE OBSERVATIONS


STATION/POSITION TIME  SKY/WX   TEMP    WIND        PRES    VSBY  WAVE
                                AIR SEA DIR/SP/G                  HT/PER
                 (UTC)          (F)     (DEG/KT/KT) (MB)    (MI)  (FT/S)
NY HARB ENTRANCE 0550            77 74  210/  6/  8 1012.5          1/ 6
20S FIRE ISLAND  0550            76 76  200/  4/  6 1012.5          2/ 6
GREAT SOUTH BAY  0600            78 82  220/ 10/ 12   N/A
23 SSW MONTAUK P 0550            73 71  200/  4/  4 1013.1          1/ 5
15 E BARNEGAT LI NOT AVBL
HUDSON CANYON    0550            78 79              1012.7          1/ 6
KINGS POINT      0600            76 75              1012.5
EXECUTION ROCKS  0600            74      CALM  /  2   N/A
CENTRAL LI SOUND 0600            76 75  260/  8/ 10   N/A           1
EASTERN LI SOUND 0600            71 68  260/  4/  4   N/A
ROBBINS REEF     0600            77     180/  7/  7 1012.2
$$


>>>>>>>>>>>>>>>>>>>>>>>>>>>> KEY <<<<<<<<<<<<<<<<<<<<<<<<<<<
>                                                          <
>     SKY/WX - Sky Condition/Present Weather               <
>     TMP    - Temperature in Fahrenheit                   <
>     DP     - Dew Point in Fahrenheit                     <
>     RH     - Relative Humidity in Percent                <
>     WIND   - Direction (from) and Speed in MPH           <
>     PRES   - Mean Sea Level Pressure (inches of Hg)      <
>     WCI    - Wind Chill Index                            <
>     VSB    - VISIBILITY IN MILES                         <
>     HX     - HEAT INDEX                                  <
>     TC     - TEMPERATURE IN CELSIUS                      <
>     VRB    - VARIABLE WIND DIRECTION                     <
>                                                          <
>>>>>>>>>>>>>>>>>>>>>>>>>>>> KEY <<<<<<<<<<<<<<<<<<<<<<<<<<<




USA.gov is the U.S. government's official web portal to all federal, state and local government web resources and services.